Location: Newark
(49.8969°N, 3.3422°E)
Time: 00:43:17
(UTC+00:00)

Explorer 7 - Pass Details

Date: 26 January 2020
Orbit: 485 x 679 km, 50.3° (Epoch: 25 February)

Event Time Altitude Azimuth Distance (km) Brightness Sun altitude
Rises 03:36:22 0° 285° (WNW) 2,568 - -37.1°
Reaches altitude 10° 03:38:38 10° 276° (W) 1,699 - -36.7°
Maximum altitude 03:42:07 34° 210° (SSW) 857 - -36.2°
Drops below altitude 10° 03:45:45 10° 145° (SE) 1,766 - -35.6°
Exits shadow 03:47:48 - 137° (SE) 2,546 10.6 -35.3°
Sets 03:48:09 0° 136° (SE) 2,686 10.7 -35.2°
